www.pogodaiklimat.ru

Погода и климат >> Архив погоды >> Россия >> Кировская область >> Опарино


ПОГОДА в Опарино

  • Прогноз погоды в Опарино
  • Монитор погоды в Опарино
  • Климат города

АРХИВ ПОГОДЫ в Опарино

Время (UTC), дата Ветер
(напр.,м/с)
 
Видим.   Явления Облачность Т
(С)
Тd
(С)
f
(%)
Тe
(С)
Тes
(С)
Комфортность P
(гПа)
Po
(гПа)
Тmin
(С)
Tmax
(С)
R
(мм)
R24
(мм)
S
(см)
15 8.08 С 1-2
{6}
50 км 9/9 600 м
[Sc]
+13.8 +9.5 75 +14 +14 1014.2 992.8 +16.6
18 8.08 С 1-2
{5}
50 км 9/9 600 м
[Sc]
+11.9 +9.3 84 +12 +12 1015.3 993.8
21 8.08 С 1-2
{3}
50 км 10/10 600 м
[Sc]
+10.9 +9.5 91 +11 +11 1016.4 994.8
00 9.08 С 1-3
{4}
50 км 10/10 600 м
[Sc]
+10.5 +8.5 87 +10 +10 1017.0 995.4
03 9.08 СЗ 2-3
{4}
50 км 10/10 600 м
[Sc]
+10.5 +8.2 86 +9 +9 1018.6 997.0 +10.2
06 9.08 С 2-4
{5}
50 км 9/9 600 м
[Sc]
+13.5 +8.5 72 +13 +14 1020.2 998.7
09 9.08 С 3-5
{7}
50 км 8/8 600 м
[Cu Sc]
+15.6 +7.4 58 +15 +17 1020.8 999.4
12 9.08 СЗ 3-6
{7}
50 км 5/5 1000 м
[Cu Sc]
+16.6 +6.4 51 +16 +19 1020.7 999.4
15 9.08 СЗ 2-3
{6}
50 км 3/0
[Ci fib]
+17.4 +7.7 53 +18 +19 1020.5 999.3 +18.8
18 9.08 З 1-2
{7}
50 км 3/0
[Cc]
+11.9 +9.3 84 +12 +12 1021.9 1000.3
21 9.08 ЮЗ 1-1
{3}
50 км ясно +9.0 +8.0 93 +8 +8 1022.0 1000.1
00 10.08 ЮЗ 1-1
{3}
50 км ясно +8.4 +7.6 95 +8 +8 1022.0 1000.1
03 10.08 З 2-4
{6}
50 км 5/3 1000 м
[Sc Ci fib]
+12.4 +9.0 80 +12 +12 1020.9 999.3 +7.9
06 10.08 ЮЗ 2-2
{5}
50 км 8/8 600 м
[Sc]
+16.4 +12.0 75 +17 +18 1019.1 997.8
09 10.08 З 3-6
{9}
50 км 4/0
[Cc]
+24.3 +14.4 54 +27 +35 жарко 1016.2 995.6
12 10.08 З 5-8
{12}
50 км 5/1 1000 м
[Cu hum Cc]
+27.2 +15.9 50 +30 +33 душно 1013.9 993.5
15 10.08 З 3-4
{13}
50 км 8/0
[Cc]
+25.7 +15.5 53 +29 +29 душно 1013.6 993.1 +27.2
18 10.08 З 3-6
{7}
50 км 8/3 600 м
[Cb calv Ci]
+22.4 +14.8 62 +26 +26 жарко 1014.0 993.2
21 10.08 З 3-5
{7}
50 км ясно +20.0 +15.4 75 +23 +23 комфорт 1014.4 993.5
00 11.08 СЗ 2-3
{5}
50 км 3/3 600 м
[Sc]
+17.2 +15.5 90 +18 +18 1014.7 993.6
03 11.08 З 2-3
{5}
50 км 9/3 600 м
[Cb cap Ci sp]
+18.1 +15.6 85 +19 +20 1014.9 993.9 +16.8
06 11.08 З 2-4
{5}
50 км 5/0
[Cc]
+22.4 +14.0 59 +26 +32 жарко 1014.4 993.6
09 11.08 СЗ 3-6
{7}
50 км 3/3 600 м
[Cu med, cong]
+26.0 +15.9 54 +29 +36 душно 1013.3 992.8
12 11.08 СЗ 2-5
{10}
50 км 5/5 600 м
[Cb cap]
+26.2 +15.3 51 +29 +32 жарко 1012.0 991.6
15 11.08 З 2-6
{9}
50 км 6/6 600 м
[Cb cap]
+26.4 +14.8 49 +29 +29 жарко 1011.0 990.6 +27.6
18 11.08 З 1-2
{6}
50 км 4/3 600 м
[Cb calv Ci fib]
+20.5 +15.2 72 +24 +24 комфорт 1011.7 990.9
21 11.08 З 2-2
{5}
50 км 8/8 600 м
[Sc]
+19.5 +14.1 71 +22 +22 комфорт 1011.8 991.0
00 12.08 ЮЗ 1-1
{4}
50 км 3/1 600 м
[Sc Ci fib]
+17.6 +14.1 80 +19 +19 1011.1 990.1
03 12.08 З 2-2
{4}
50 км 3/0
[Cc]
+16.6 +14.1 85 +17 +18 1011.2 990.1 +15.9
06 12.08 ЮЗ 2-2
{6}
50 км ясно +23.3 +15.7 62 +28 +35 душно 1010.1 989.6
09 12.08 З 4-6
{8}
50 км 5/3 1000 м
[Cu hum Ci sp]
+26.8 +14.7 47 +29 +34 жарко 1009.0 988.7
12 12.08 З 3-5
{8}
50 км 9/6 600 м
[Cb cap Ci fib]
+27.3 +15.1 47 +30 +32 душно 1008.3 988.0
15 12.08 ЮЗ 3-5
{7}
50 км 3/3 600 м
[Cb cap]
+26.2 +16.1 54 +30 +30 душно 1007.3 987.0 +28.0
18 12.08 ЮЗ 1-2
{5}
50 км 1/0
[Ci fib]
+21.2 +16.9 76 +25 +25 комфорт 1006.8 986.2
21 12.08 Ю 1-2
{3}
50 км ясно +18.4 +16.0 86 +20 +20 1005.6 984.8
00 13.08 Ю 1-2
{3}
50 км ясно +16.7 +14.8 89 +18 +18 1004.6 983.6
03 13.08 ЮЗ 2-3
{4}
50 км 3/0
[Ci fib]
+16.6 +14.1 85 +17 +18 1003.5 982.5 +14.9
06 13.08 З 5-6
{9}
50 км 4/3 600 м
[Sc Cc]
+19.8 +11.9 60 +21 +24 комфорт 1002.8 982.2
09 13.08 ЮЗ 6-10
{13}
50 км 5/5 1000 м
[Cb cap]
+21.5 +8.1 42 +23 +25 комфорт 1002.4 981.9
12 13.08 З 5-11
{13}
50 км 4/3 1000 м
[Cu hum Cc]
+21.7 +5.8 36 +22 +24 комфорт 1002.4 981.9
15 13.08 ЮЗ 3-7
{13}
50 км 6/6 600 м
[Sc]
+19.4 +6.4 43 +20 +20 1002.7 982.0 +22.8
18 13.08 ЮЗ 3-6
{13}
50 км 3/3 1000 м
[Sc]
+15.0 +9.5 70 +14 +14 1003.3 982.3
21 13.08 ЮЗ 2-4
{8}
50 км ясно +12.8 +10.0 83 +12 +12 1003.6 982.4
00 14.08 ЮЗ 1-3
{5}
50 км ясно +12.3 +10.7 90 +12 +12 1004.0 982.7
03 14.08 ЮЗ 1-1
{6}
50 км 10/10 600 м
[Sc]
+12.8 +11.3 91 +13 +13 1005.5 984.2 +11.6
06 14.08 СЗ 2-2
{5}
50 км 9/9 600 м
[Sc]
+16.2 +11.8 75 +16 +17 1006.1 985.1
09 14.08 З 3-3
{7}
50 км 8/8 600 м
[Cb cap]
+18.5 +10.9 61 +19 +21 1006.6 985.8
12 14.08 ЮЗ 3-4
{10}
50 км 8/8 600 м
[Cb cap]
+15.9 +11.4 75 +15 +16 1008.1 987.1
15 14.08 ЮЗ 2-2
{7}
50 км 4/4 1000 м
[Sc]
+16.7 +12.0 74 +17 +17 1008.7 987.6 +20.6
18 14.08 ЮЗ 1-1
{7}
50 км 1/1 600 м
[Sc]
+11.2 +8.5 83 +11 +11 1010.7 989.2
21 14.08 З 1-2
{4}
50 км ясно +11.0 +9.8 92 +11 +11 1010.9 989.4
00 15.08 ЮЗ 2-3
{4}
50 км 3/0
[Ac trans]
+10.7 +10.2 97 +9 +9 1011.5 990.0
03 15.08 ЮЗ 1-2
{5}
50 км 3/0
[Ac trans]
+11.5 +10.3 92 +11 +12 1012.8 991.3 +9.9
06 15.08 З 3-5
{7}
50 км 4/4 600 м
[Cu med, cong]
+16.2 +10.4 68 +16 +19 1012.9 991.8
09 15.08 СЗ 2-5
{7}
50 км 8/8 600 м
[Cb cap]
+18.6 +8.6 52 +20 +22 1012.7 991.8

 

Местоположение метеостанции Опарино (Кировская область, Россия): широта 59.85 долгота 48.28 высота над уровнем моря 180 м.

В архиве по умолчанию представлена погода в Опарино за последнюю неделю. Архивные данные за месяц целиком и за предыдущие месяцы, начиная с января 2011 года, Вы можете получить, выбрав интересующий диапазон дат из раскрывающегося списка и нажав кнопку "Ввод!".


*Определитесь, кто Вы:
робот инопланетянин человек

Внимание! Время в таблицах - всемирное. Для получения местного времени необходимо прибавить поправку, которая в Опарино равна 3 ч.

Смотрите также архив погоды в соседних городах и на ближайших метеорологических станциях:

Погода в Объячеве (Коми, Россия) (95 км)
Погода в Лальске (Кировская область, Россия) (102 км)
Погода в Даровском (Кировская область, Россия) (121 км)
Погода в Вохме (Костромская область, Россия) (133 км)
Погода в Вилегодском (Архангельская область, Россия) (142 км)
Погода в Великом Устюге (Вологодская область, Россия) (150 км)
Погода в Нагорске (Кировская область, Россия) (155 км)
Погода в Кирове (Кировская область, Россия) (159 км)
Погода в Никольске (Вологодская область, Россия) (162 км)
Погода в Койгородке (Коми, Россия) (163 км)

Пояснения к столбцам:

Ветер - указаны скорость ветра в м/с - средняя за 10 мин, порывы в срок и между сроками (в фигурных скобках) и направление, откуда дует ветер: С - северный, СВ - северо-восточный, В - восточный, ЮВ - юго-восточный, Ю - южный, ЮЗ - юго-западный, З - западный, СЗ - северо-западный.
Видимость - горизонтальная дальность видимости в метрах или километрах. При видимости от 1 до 10 км при отсутствии осадков обычно наблюдается дымка, при ухудшении видимости до 1 км и менее - туман. В сухую погоду видимость может ухудшаться дымом, пылью или мглою.
Явления - указаны атмосферные явления, наблюдавшиеся в срок или в последний час перед сроком; фигурными скобками обозначены явления, наблюдавшиеся между сроками (за 1-3 часа до срока); квадратными скобками обозначены град или гололедные отложения с указанием их диаметра в мм.
Облачность - указаны через наклонную черту общая и нижняя облачность в баллах и высота нижней границы облаков в метрах; квадратными скобками обозначены формы облаков: Ci - перистые, Cs - перисто-слоистые, Cc - перисто-кучевые, Ac - высококучевые, As - высокослоистые, Sc - слоисто-кучевые, Ns - слоисто-дождевые, Cu - кучевые, Cb - кучево-дождевые. Подробнее классификацию облаков см. в Атласе облаков (PDF).
T - Температура воздуха - температура, измеренная на высоте 2 м над землей.
Td - Температура точки росы - температура, при понижении до которой содержащийся в воздухе водяной пар достигнет насыщения.
f - Относительная влажность воздуха - влажноcть воздуха, измеренная на высоте 2 м над землей.
Te - Эффективная температура - температура, которую ощущает одетый по сезону человек в тени. Характеристика душности погоды. При расчете учитывается влияние влажности воздуха и скорости ветра на теплоощущения человека.
Tes - Эффективная температура на солнце - температура, которую ощущает человек, с поправкой на солнечный нагрев. Характеристика знойности погоды. Зависит от высоты солнца над горизонтом, облачности и скорости ветра. Ночью, в пасмурную погоду, а также при ветре 12 м/с и более поправка равна нулю.
P - Атмосферное давление - приведенное к уровню моря атмосферное давление.
Po - Атмосферное давление - измеренное на уровне метеостанции атмосферное давление.
Tmin - Минимальная температура - минимум температуры воздуха на высоте 2 м над землей.
Tmax - Максимальная температура - максимум температуры воздуха на высоте 2 м над землей.
R - Количество осадков - Количество выпавших осадков за период времени, мм. При наведении курсора мыши на число - период времени, за который выпало указанное количество осадков.
R24 - Количество осадков - Количество выпавших осадков за 24 часа, мм.
S - Снежный покров - Высота снежного покрова, см. При наведении курсора мыши на число - состояние снежного покрова и степень покрытия местности в баллах.